Date String (YYYY-MM-DD hh:mm:ss) UTC,Instrument flags,absolute air pressure of the measurement (hPa),sample flow rate (lpm),inlet stack bypass flow (lpm),air temperature of the measurement (°C),ambient temperature measured by the external sensor (°C),aerosol sample conditioner tube jacket temperature (°C),OPC LED temperature (°C),internal box temperature (°C),relative humidity of the measurement (%),span deviation,mass concentration of particles derived from Lorenz-Mie calculation of OPC scattering (μg/m³),mass concentration of particles derived from Lorenz-Mie calculation of OPC scattering (μg/m³),mass concentration of particles derived from Lorenz-Mie calculation of OPC scattering (μg/m³)
DateTimeUTC,F1_M11,P_M11,Q1_M11,Q2_M11,T1_M11,T2_M11,T3_M11,T4_M11,T5_M11,U1_M11,ZSPAN_M11,X0_M11,X2_M11,X1_M11
2023-06-11 21:00:00,SystemResetWarning,0831.6,5.00,000.00,029.7,027.0,000.0,038.4,031.2,28.2,0000.0,0011.07,0004.95,0004.56
2023-06-11 21:01:00,SystemResetWarning,0831.8,5.00,000.00,029.7,027.2,000.0,038.4,031.2,28.1,0000.0,0010.48,0004.88,0004.49
2023-06-11 21:02:00,SystemResetWarning,0831.6,5.00,000.00,029.7,027.4,000.0,038.4,031.2,28.3,0000.0,0009.38,0004.82,0004.43
2023-06-11 21:03:00,SystemResetWarning,0831.6,4.99,000.00,029.7,027.5,000.0,038.3,031.2,28.5,0000.0,0009.33,0004.79,0004.38
2023-06-11 21:04:00,SystemResetWarning,0831.6,4.98,000.00,029.7,027.7,000.0,038.3,031.2,28.6,0000.0,0009.90,0004.75,0004.32
2023-06-11 21:05:00,SystemResetWarning,0831.6,5.00,000.00,029.7,027.8,000.0,038.3,031.2,28.6,0000.0,0009.78,0004.67,0004.25
2023-06-11 21:06:00,SystemResetWarning,0831.6,5.00,000.00,029.7,027.9,000.0,038.3,031.2,28.4,0000.0,0009.06,0004.65,0004.24
2023-06-11 21:07:00,SystemResetWarning,0831.6,5.00,000.00,029.7,027.9,000.0,038.3,031.2,28.5,0000.0,0009.05,0004.66,0004.26
2023-06-11 21:08:00,SystemResetWarning,0831.6,5.00,000.00,029.7,028.0,000.0,038.3,031.2,28.3,0000.0,0009.46,0004.71,0004.30
2023-06-11 21:09:00,SystemResetWarning,0831.6,5.00,000.00,029.7,028.0,000.0,038.3,031.2,28.7,0000.0,0009.18,0004.70,0004.30
2023-06-11 21:10:00,SystemResetWarning,0831.6,4.99,000.00,029.7,028.1,000.0,038.3,031.2,28.8,0000.0,0008.67,0004.72,0004.31
2023-06-11 21:11:00,SystemResetWarning,0831.6,5.00,000.00,029.7,028.1,000.0,038.3,031.2,28.8,0000.0,0008.73,0004.74,0004.32
2023-06-11 21:12:00,SystemResetWarning,0831.6,5.00,000.00,029.7,028.1,000.0,038.3,031.2,28.4,0000.0,0008.77,0004.76,0004.33
2023-06-11 21:13:00,SystemResetWarning,0831.5,5.00,000.00,029.7,028.1,000.0,038.3,031.2,28.5,0000.0,0008.93,0004.79,0004.36
2023-06-11 21:14:00,SystemResetWarning,0831.5,5.00,000.00,029.7,028.2,000.0,038.3,031.2,28.3,0000.0,0009.14,0004.83,0004.39
2023-06-11 21:15:00,SystemResetWarning,0831.4,5.00,000.00,029.7,028.2,000.0,038.3,031.2,28.2,0000.0,0008.42,0004.86,0004.44
2023-06-11 21:16:00,SystemResetWarning,0831.4,5.00,000.00,029.7,028.2,000.0,038.3,031.2,28.5,0000.0,0008.54,0004.94,0004.50
2023-06-11 21:17:00,SystemResetWarning,0831.3,5.00,000.00,029.7,028.2,000.0,038.3,031.3,28.9,0000.0,0008.51,0004.97,0004.53
2023-06-11 21:18:00,SystemResetWarning,0831.3,5.00,000.00,029.8,028.3,000.0,038.3,031.3,28.9,0000.0,0008.54,0004.99,0004.55
2023-06-11 21:19:00,SystemResetWarning,0831.3,5.00,000.00,029.8,028.3,000.0,038.3,031.4,28.9,0000.0,0008.19,0004.96,0004.55
2023-06-11 21:20:00,SystemResetWarning,0831.3,5.00,000.00,029.8,028.3,000.0,038.3,031.4,28.8,0000.0,0008.17,0004.97,0004.57
2023-06-11 21:21:00,SystemResetWarning,0831.3,5.00,000.00,029.8,028.4,000.0,038.3,031.4,28.9,0000.0,0008.09,0004.97,0004.58
2023-06-11 21:22:00,SystemResetWarning,0831.3,5.00,000.00,029.9,028.4,000.0,038.3,031.4,28.8,0000.0,0008.10,0004.99,0004.60
2023-06-11 21:23:00,SystemResetWarning,0831.3,5.00,000.00,029.9,028.5,000.0,038.3,031.5,28.6,0000.0,0008.66,0004.99,0004.61
2023-06-11 21:24:00,SystemResetWarning,0831.3,5.00,000.00,029.9,028.5,000.0,038.4,031.5,28.6,0000.0,0008.79,0004.97,0004.60
2023-06-11 21:25:00,SystemResetWarning,0831.3,4.98,000.00,029.9,027.6,000.0,038.4,031.5,28.7,0000.0,0008.73,0004.97,0004.58
2023-06-11 21:26:00,SystemResetWarning,0831.3,5.00,000.00,029.9,025.6,000.0,038.3,031.5,28.4,0000.0,0008.74,0004.94,0004.56
2023-06-11 21:27:00,SystemResetWarning,0831.3,5.01,000.00,029.9,025.1,000.0,038.3,031.3,27.9,0000.0,0008.67,0004.93,0004.57
2023-06-11 21:28:00,SystemResetWarning,0831.3,5.01,000.00,029.8,025.3,000.0,038.3,031.0,27.8,0000.8,0008.70,0004.98,0004.62
2023-06-11 21:29:00,SystemResetWarning,0831.3,4.99,000.00,029.7,025.7,000.0,038.3,030.9,27.9,0000.0,0008.74,0005.03,0004.67
2023-06-11 21:30:00,SystemResetWarning,0831.3,5.00,000.00,029.6,026.1,000.0,038.2,031.0,27.9,0000.0,0008.75,0005.09,0004.74
2023-06-11 21:31:00,SystemResetWarning,0831.3,5.01,000.00,029.6,026.5,000.0,038.2,031.0,27.9,0000.0,0008.79,0005.14,0004.79
2023-06-11 21:32:00,SystemResetWarning,0831.3,5.01,000.00,029.6,026.8,000.0,038.2,031.1,28.3,0001.2,0008.86,0005.19,0004.84
2023-06-11 21:33:00,SystemResetWarning,0831.3,4.99,000.00,029.6,027.1,000.0,038.2,031.1,28.3,0001.9,0008.86,0005.21,0004.88
2023-06-11 21:34:00,SystemResetWarning,0831.3,5.00,000.00,029.6,027.4,000.0,038.2,031.1,28.4,0000.2,0008.49,0005.25,0004.91
2023-06-11 21:35:00,SystemResetWarning,0831.3,5.00,000.00,029.6,027.6,000.0,038.2,031.1,28.1,0000.5,0008.22,0005.29,0004.97
2023-06-11 21:36:00,SystemResetWarning,0831.3,5.00,000.00,029.6,027.7,000.0,038.2,031.1,28.3,0001.3,0008.44,0005.33,0005.02
2023-06-11 21:37:00,SystemResetWarning,0831.3,4.99,000.00,029.6,027.8,000.0,038.2,031.2,28.1,0000.0,0008.52,0005.40,0005.07
2023-06-11 21:38:00,SystemResetWarning,0831.3,5.01,000.00,029.7,027.9,000.0,038.2,031.2,28.2,0000.0,0008.65,0005.40,0005.08
2023-06-11 21:39:00,SystemResetWarning,0831.3,5.01,000.00,029.7,028.0,000.0,038.2,031.2,28.4,0000.0,0008.68,0005.36,0005.04
2023-06-11 21:40:00,SystemResetWarning,0831.3,4.99,000.00,029.7,028.1,000.0,038.2,031.2,28.2,0000.0,0008.64,0005.34,0005.01
2023-06-11 21:41:00,SystemResetWarning,0831.3,4.99,000.00,029.7,028.1,000.0,038.2,031.2,28.2,0000.0,0008.63,0005.31,0004.99
2023-06-11 21:42:00,SystemResetWarning,0831.3,5.00,000.00,029.7,028.2,000.0,038.2,031.3,28.1,0000.0,0008.62,0005.31,0004.97
2023-06-11 21:43:00,SystemResetWarning,0831.3,5.00,000.00,029.7,028.2,000.0,038.2,031.3,27.9,0000.0,0008.67,0005.36,0004.99
2023-06-11 21:44:00,SystemResetWarning,0831.3,5.00,000.00,029.7,028.3,000.0,038.2,031.3,27.9,0000.0,0008.72,0005.39,0005.00
2023-06-11 21:45:00,SystemResetWarning,0831.3,5.01,000.00,029.8,028.3,000.0,038.2,031.3,27.8,0000.0,0008.71,0005.39,0005.00
2023-06-11 21:46:00,SystemResetWarning,0831.3,5.00,000.00,029.8,028.4,000.0,038.3,031.4,27.8,0000.0,0008.88,0005.40,0004.99
2023-06-11 21:47:00,SystemResetWarning,0831.3,5.00,000.00,029.8,028.4,000.0,038.3,031.4,28.2,0000.0,0008.58,0005.35,0004.96
2023-06-11 21:48:00,SystemResetWarning,0831.3,4.99,000.00,029.8,028.4,000.0,038.3,031.4,28.3,0000.4,0008.46,0005.31,0004.90
2023-06-11 21:49:00,SystemResetWarning,0831.2,5.00,000.00,029.9,028.4,000.0,038.3,031.4,27.9,0001.3,0008.44,0005.28,0004.87
2023-06-11 21:50:00,SystemResetWarning,0831.2,4.99,000.00,029.9,028.3,000.0,038.3,031.4,28.0,0001.4,0008.64,0005.27,0004.87
2023-06-11 21:51:00,SystemResetWarning,0831.2,4.98,000.00,029.9,026.6,000.0,038.3,031.5,28.4,0001.6,0009.36,0005.24,0004.82
2023-06-11 21:52:00,SystemResetWarning,0831.2,5.00,000.00,029.9,025.2,000.0,038.2,031.4,28.3,0001.6,0009.39,0005.22,0004.78
2023-06-11 21:53:00,SystemResetWarning,0831.2,5.01,000.00,029.8,025.1,000.0,038.2,031.2,28.3,0001.2,0009.43,0005.17,0004.73
2023-06-11 21:54:00,SystemResetWarning,0831.2,5.00,000.00,029.7,025.5,000.0,038.2,031.0,28.3,0000.0,0009.37,0005.10,0004.66
2023-06-11 21:55:00,SystemResetWarning,0831.2,4.99,000.00,029.6,025.8,000.0,038.2,031.0,28.7,0000.0,0009.28,0005.02,0004.61
2023-06-11 21:56:00,SystemResetWarning,0831.2,5.01,000.00,029.6,026.2,000.0,038.2,030.9,28.5,0000.0,0009.26,0005.00,0004.58
2023-06-11 21:57:00,SystemResetWarning,0831.3,5.01,000.00,029.6,026.6,000.0,038.2,031.0,28.7,0000.0,0009.03,0004.95,0004.53
2023-06-11 21:58:00,SystemResetWarning,0831.3,5.00,000.00,029.6,026.9,000.0,038.2,031.0,28.8,0000.0,0008.91,0004.90,0004.50
2023-06-11 21:59:00,SystemResetWarning,0831.3,5.00,000.00,029.6,027.2,000.0,038.2,031.0,28.9,0000.0,0008.82,0004.85,0004.48
